Location: Antoign�
(47.0844°N, 0.1131°W)
Time: 21:28:49
(UTC+00:00)

Cosmos 1602 - Pass Details

Date: 03 March 2021
Orbit: 512 x 534 km, 82.5° (Epoch: 14 April)

Event Time Altitude Azimuth Distance (km) Brightness Sun altitude
Rises 18:38:57 0° 187° (S) 2,649 7.4 -9.3°
Reaches altitude 10° 18:41:04 10° 187° (S) 1,769 6.5 -9.7°
Maximum altitude 18:44:58 87° 97° (E) 538 3.7 -10.3°
Drops below altitude 10° 18:48:55 10° 10° (N) 1,795 6.4 -11.0°
Sets 18:51:05 0° 10° (N) 2,693 7.3 -11.4°
